Hourly Data Report for August 26, 2013

All times are specified in Local Standard Time (LST). Add 1 hour to adjust for Daylight Saving Time where and when it is observed.

VICTORIA INTL A
BRITISH COLUMBIA

48°38'50.000" N
123°25'33.000" W
19.50 m
1018621
71799
YYJ

Download Data

Hourly Data (August 2013)
Hourly Data Report for August 26, 2013
Temp Definition
°C
Dew Point Temp Definition
°C
Rel Hum Definition
%
Wind Dir Definition
10's deg

Wind Spd Definition
km/h
Visibility Definition
km
Stn Press Definition
kPa
Hmdx Definition


Wind Chill Definition


Weather Definition


TIME
00:00 11.3 10.1 92 12 7 48.3 100.90     LegendNANA
01:00 11.4 9.7 89 21 2 48.3 100.91     Mostly Cloudy
02:00 10.3 9.7 96 22 1 48.3 100.93     LegendNANA
03:00 10.8 10.0 95 14 8 48.3 100.95     LegendNANA
04:00 10.8 10.2 96 11 5 48.3 100.96     Mainly Clear
05:00 9.9 9.5 97 9 5 48.3 100.97     LegendNANA
06:00 10.7 9.9 95 12 5 48.3 101.01     LegendNANA
07:00 11.9 10.5 91 33 1 48.3 101.01     Mostly Cloudy
08:00 13.6 10.6 82 12 9 48.3 101.00     LegendNANA
09:00 15.5 10.3 71 9 13 32.2 100.97     LegendNANA
10:00 15.7 10.5 71 10 8 32.2 100.95     Mostly Cloudy
11:00 17.8 10.0 60 10 9 32.2 100.92     LegendNANA
12:00 17.1 10.5 65 12 5 32.2 100.89     LegendNANA
13:00 19.2 12.1 63 6 5 32.2 100.85     Cloudy
14:00 19.9 12.3 61 9 13 32.2 100.80     LegendNANA
15:00 19.3 12.2 63 11 9 32.2 100.81     LegendNANA
16:00 18.7 14.0 74 12 4 32.2 100.84     Rain
17:00 17.8 12.8 72 12 7 32.2 100.84     Rain
18:00 14.2 11.0 81 13 19 32.2 100.89     LegendNANA
19:00 12.8 10.9 88 12 9 32.2 100.92     Mostly Cloudy
20:00 13.3 11.4 88 3 7 32.2 100.97     LegendNANA
21:00 13.4 11.3 87 9 1 32.2 101.00     LegendNANA
22:00 14.0 11.7 86 29 3 32.2 101.06     Mostly Cloudy
23:00 13.7 11.8 88 14 9 32.2 101.12     LegendNANA

Notes on Data Quality.

Legend

  • E = Estimated
  • M = Missing
  • NA = Not Available
Date modified: